Location: Mason
(37.5237°N, 89.2543°W)
Time: 08:16:13
(UTC+00:00)

COSMO-SKYMED 1 - Pass Details

Date: 24 January 2021
Orbit: 621 x 623 km, 97.9° (Epoch: 09 March)

Event Time Altitude Azimuth Distance (km) Brightness Sun altitude
Rises 12:14:47 0° 204° (SSW) 2,889 5.9 -10.4°
Reaches altitude 10° 12:17:37 10° 224° (SW) 1,988 4.9 -9.9°
Maximum altitude 12:20:30 17° 266° (W) 1,562 4.1 -9.3°
Drops below altitude 10° 12:23:24 10° 309° (NW) 1,998 4.6 -8.8°
Enters shadow 12:23:52 - 313° (NW) 2,128 4.8 -8.7°
